FW8528 Weather Reports


Display with metric or nautical units.
time (UTC)temp
F
wind
direction
speed
MPH
gust
MPH
rain 1hr
in
rain 24hr
in
rain mn
in
humidity
%
barometer
mb
20260831220307 78 251 2.0 2.0 0.00 0.00 0.00 49 1009.6
20260831215802 77 296 3.0 3.0 0.00 0.00 0.00 51 1009.6
20260831215258 76 105 3.0 6.0 0.00 0.00 0.00 51 1009.6
20260831214754 75 278 1.0 1.0 0.00 0.00 0.00 52 1009.6
20260831214252 76 290 2.0 2.0 0.00 0.00 0.00 51 1009.9
20260831213747 76 108 5.0 7.0 0.00 0.00 0.00 51 1009.9
20260831213244 77 196 1.0 1.0 0.00 0.00 0.00 51 1010.3
20260831212743 76 26 2.0 2.0 0.00 0.00 0.00 51 1010.3
20260831212241 77 120 3.0 3.0 0.00 0.00 0.00 51 1010.3
20260831211739 76 222 1.0 2.0 0.00 0.00 0.00 53 1010.3
20260831211235 77 184 3.0 3.0 0.00 0.00 0.00 52 1010.3
20260831210734 75 175 1.0 2.0 0.00 0.00 0.00 54 1010.3
20260831210225 75 124 4.0 6.0 0.00 0.00 0.00 53 1010.3
20260831205724 76 243 2.0 2.0 0.00 0.00 0.00 52 1010.3
20260831205220 76 91 1.0 2.0 0.00 0.00 0.00 51 1010.6
20260831204715 76 206 3.0 6.0 0.00 0.00 0.00 51 1010.6
20260831204214 77 101 1.0 1.0 0.00 0.00 0.00 51 1010.6
20260831203713 76 224 1.0 1.0 0.00 0.00 0.00 51 1010.6
20260831203208 77 264 2.0 2.0 0.00 0.00 0.00 50 1010.9
20260831202706 75 280 2.0 2.0 0.00 0.00 0.00 52 1010.6
20260831202201 76 195 0.0 1.0 0.00 0.00 0.00 54 1010.9
20260831201655 76 248 3.0 3.0 0.00 0.00 0.00 54 1010.9
20260831201154 75 104 1.0 2.0 0.00 0.00 0.00 53 1011.3
20260831200651 76 221 4.0 5.0 0.00 0.00 0.00 52 1010.9
20260831200151 74 287 1.0 1.0 0.00 0.00 0.00 56 1010.9
20260831195646 75 184 5.0 7.0 0.00 0.00 0.00 54 1010.9
20260831195141 74 254 1.0 2.0 0.00 0.00 0.00 56 1011.3
20260831194636 73 255 2.0 3.0 0.00 0.00 0.00 58 1011.3
20260831194131 72 188 1.0 1.0 0.00 0.00 0.00 59 1011.3
20260831193626 72 73 3.0 5.0 0.00 0.00 0.00 59 1011.3
20260831193121 75 128 3.0 5.0 0.00 0.00 0.00 57 1011.7
20260831192616 75 139 0.0 1.0 0.00 0.00 0.00 54 1011.3
20260831192112 73 184 1.0 1.0 0.00 0.00 0.00 58 1011.7
20260831191608 72 177 2.0 2.0 0.00 0.00 0.00 59 1011.3
20260831191103 72 175 2.0 2.0 0.00 0.00 0.00 60 1012.0
20260831190558 74 109 2.0 3.0 0.00 0.00 0.00 59 1011.7
20260831190056 72 208 0.0 1.0 0.00 0.00 0.00 61 1012.0
20260831185553 72 183 1.0 2.0 0.00 0.00 0.00 62 1012.0
20260831185049 72 180 3.0 3.0 0.00 0.00 0.00 61 1011.7
20260831184548 72 141 1.0 2.0 0.00 0.00 0.00 61 1012.0
20260831184044 72 235 2.0 3.0 0.00 0.00 0.00 60 1012.0
20260831183543 72 1 3.0 3.0 0.00 0.00 0.00 61 1012.0
20260831183042 70 262 1.0 1.0 0.00 0.00 0.00 64 1012.0
20260831182537 71 136 1.0 1.0 0.00 0.00 0.00 62 1012.0
20260831182033 69 162 1.0 2.0 0.00 0.00 0.00 66 1012.0
20260831181532 70 263 3.0 3.0 0.00 0.00 0.00 64 1012.4
20260831181032 69 187 0.0 1.0 0.00 0.00 0.00 68 1012.4
20260831180527 70 254 0.0 0.0 0.00 0.00 0.00 67 1012.4
20260831180022 68 153 2.0 2.0 0.00 0.00 0.00 70 1012.4
20260831175517 67 231 1.0 1.0 0.00 0.00 0.00 71 1012.4
20260831175015 66 123 2.0 3.0 0.00 0.00 0.00 73 1012.7
20260831174514 65 115 2.0 3.0 0.00 0.00 0.00 75 1012.4
20260831174009 65 247 1.0 1.0 0.00 0.00 0.00 75 1012.4
20260831173507 66 198 0.0 1.0 0.00 0.00 0.00 73 1012.7
20260831173003 64 226 1.0 1.0 0.00 0.00 0.00 76 1012.7
20260831172459 64 162 1.0 2.0 0.00 0.00 0.00 77 1012.7
20260831171953 63 185 2.0 2.0 0.00 0.00 0.00 78 1012.7
20260831171449 63 317 1.0 2.0 0.00 0.00 0.00 80 1012.7
20260831170946 63 236 1.0 2.0 0.00 0.00 0.00 80 1012.7
20260831170442 63 282 0.0 1.0 0.00 0.00 0.00 81 1013.1
20260831165939 62 191 1.0 1.0 0.00 0.00 0.00 83 1012.7
20260831165434 62 222 3.0 3.0 0.00 0.00 0.00 83 1012.7
20260831164931 62 227 1.0 1.0 0.00 0.00 0.00 83 1013.1
20260831164426 62 132 3.0 3.0 0.00 0.00 0.00 83 1013.1
20260831163921 62 228 1.0 2.0 0.00 0.00 0.00 82 1013.1
20260831163417 62 209 0.0 0.0 0.00 0.00 0.00 83 1012.7
20260831162915 62 178 2.0 3.0 0.00 0.00 0.00 83 1013.1
20260831162411 61 268 0.0 0.0 0.00 0.00 0.00 85 1012.7
20260831161909 59 257 0.0 1.0 0.00 0.00 0.00 86 1013.1
20260831161406 58 223 0.0 0.0 0.00 0.00 0.00 93 1012.7
20260831160901 56 297 0.0 0.0 0.00 0.00 0.00 94 1013.1
20260831160356 56 239 0.0 0.0 0.00 0.00 0.00 98 1013.1
20260831155851 55 238 0.0 0.0 0.00 0.00 0.00 99 1013.1
20260831155350 54 241 0.0 0.0 0.00 0.00 0.00 99 1013.1
20260831154846 53 241 0.0 0.0 0.00 0.00 0.00 99 1013.1
20260831154343 53 241 0.0 0.0 0.00 0.00 0.00 99 1013.4
20260831153841 53 241 0.0 0.0 0.00 0.00 0.00 99 1013.4
20260831153337 52 241 0.0 0.0 0.00 0.00 0.00 99 1013.1
20260831152833 52 241 0.0 0.0 0.00 0.00 0.00 99 1013.4
20260831152328 51 241 0.0 0.0 0.00 0.00 0.00 99 1013.4
20260831151823 51 241 0.0 0.0 0.00 0.00 0.00 99 1013.4
20260831151322 50 241 0.0 0.0 0.00 0.00 0.00 99 1013.7
20260831150818 50 241 0.0 0.0 0.00 0.00 0.00 99 1013.7
20260831150313 50 241 0.0 0.0 0.00 0.00 0.00 99 1013.4
20260831145812 50 241 0.0 0.0 0.00 0.00 0.00 99 1013.4
20260831145309 50 241 0.0 0.0 0.00 0.00 0.00 99 1013.4
20260831144804 49 241 0.0 0.0 0.00 0.00 0.00 99 1013.7
20260831144300 49 241 0.0 0.0 0.00 0.00 0.00 99 1013.4
20260831143800 49 241 0.0 0.0 0.00 0.00 0.00 99 1013.4
20260831143255 49 241 0.0 0.0 0.00 0.00 0.00 99 1013.4
20260831142750 49 241 0.0 0.0 0.00 0.00 0.00 99 1013.4
20260831142245 49 241 0.0 0.0 0.00 0.00 0.00 99 1013.4
20260831141740 49 241 0.0 0.0 0.00 0.00 0.00 99 1013.4
20260831141239 49 241 0.0 0.0 0.00 0.00 0.00 99 1013.4
20260831140735 49 241 0.0 0.0 0.00 0.00 0.00 99 1013.4
20260831140229 49 241 0.0 0.0 0.00 0.00 0.00 99 1013.4
20260831135726 48 241 0.0 0.0 0.00 0.00 0.00 99 1013.1
20260831135223 48 241 0.0 0.0 0.00 0.00 0.00 99 1013.4
20260831134718 48 241 0.0 0.0 0.00 0.00 0.00 99 1013.4
20260831134214 48 241 0.0 0.0 0.00 0.00 0.00 99 1013.7
20260831133713 48 241 0.0 0.0 0.00 0.00 0.00 99 1013.4
20260831133207 48 241 0.0 0.0 0.00 0.00 0.00 99 1013.4
20260831132703 48 241 0.0 0.0 0.00 0.00 0.00 99 1013.4
20260831132202 48 241 0.0 0.0 0.00 0.00 0.00 99 1013.4
20260831131657 48 241 0.0 0.0 0.00 0.00 0.00 99 1013.4
20260831131154 48 241 0.0 0.0 0.00 0.00 0.00 99 1013.7
20260831130649 49 241 0.0 0.0 0.00 0.00 0.00 99 1013.4
20260831130144 49 241 0.0 0.0 0.00 0.00 0.00 99 1013.7
20260831125642 49 241 0.0 0.0 0.00 0.00 0.00 99 1013.7
20260831125138 48 241 0.0 0.0 0.00 0.00 0.00 99 1013.7
20260831124634 49 241 0.0 0.0 0.00 0.00 0.00 99 1013.7
20260831124130 49 241 0.0 0.0 0.00 0.00 0.00 99 1013.7
20260831123630 49 241 0.0 0.0 0.00 0.00 0.00 99 1013.7
20260831123129 49 241 0.0 0.0 0.00 0.00 0.00 99 1013.7
20260831122628 49 241 0.0 0.0 0.00 0.00 0.00 99 1014.1
20260831122125 49 241 0.0 0.0 0.00 0.00 0.00 99 1013.7
20260831121623 49 241 0.0 0.0 0.00 0.00 0.00 99 1014.1
20260831121120 49 241 0.0 0.0 0.00 0.00 0.00 99 1014.1
20260831120615 49 241 0.0 0.0 0.00 0.00 0.00 99 1014.1
20260831120110 49 241 0.0 0.0 0.00 0.00 0.00 99 1014.1
20260831115606 49 241 0.0 0.0 0.00 0.00 0.00 99 1014.1
20260831115101 49 241 0.0 0.0 0.00 0.00 0.00 99 1014.1
20260831114600 49 241 0.0 0.0 0.00 0.00 0.00 99 1014.1
20260831114055 49 241 0.0 0.0 0.00 0.00 0.00 99 1014.1
20260831113554 49 241 0.0 0.0 0.00 0.00 0.00 99 1014.1
20260831113050 49 241 0.0 0.0 0.00 0.00 0.00 99 1014.4
20260831112549 49 241 0.0 0.0 0.00 0.00 0.00 99 1014.4
20260831112044 50 241 0.0 0.0 0.00 0.00 0.00 99 1014.4
20260831111541 49 241 0.0 0.0 0.00 0.00 0.00 99 1014.8
20260831111036 50 241 0.0 0.0 0.00 0.00 0.00 99 1014.8
20260831110531 49 241 0.0 0.0 0.00 0.00 0.00 99 1014.8
20260831110026 50 241 0.0 0.0 0.00 0.00 0.00 99 1014.4
20260831105525 50 241 0.0 0.0 0.00 0.00 0.00 99 1014.8
20260831105020 50 241 0.0 0.0 0.00 0.00 0.00 99 1014.4
20260831104517 50 241 0.0 0.0 0.00 0.00 0.00 99 1014.1
20260831104012 50 241 0.0 0.0 0.00 0.00 0.00 99 1014.4
20260831103507 50 241 0.0 0.0 0.00 0.00 0.00 99 1014.4
20260831103003 50 241 0.0 0.0 0.00 0.00 0.00 99 1014.4
20260831102457 50 241 0.0 0.0 0.00 0.00 0.00 99 1014.4
20260831101952 50 241 0.0 0.0 0.00 0.00 0.00 99 1014.8
20260831101447 50 241 0.0 0.0 0.00 0.00 0.00 99 1014.8
20260831100943 50 241 0.0 0.0 0.00 0.00 0.00 99 1014.8
20260831100439 50 241 0.0 0.0 0.00 0.00 0.00 99 1014.8
20260831095934 51 241 0.0 0.0 0.00 0.00 0.00 99 1014.8
20260831095433 50 241 0.0 0.0 0.00 0.00 0.00 99 1015.1
20260831094928 51 241 0.0 0.0 0.00 0.00 0.00 99 1014.8
20260831094424 50 241 0.0 0.0 0.00 0.00 0.00 98 1015.1
20260831093920 51 241 0.0 0.0 0.00 0.00 0.00 99 1015.1
20260831093414 51 241 0.0 1.0 0.00 0.00 0.00 99 1015.1
20260831092911 50 241 0.0 0.0 0.00 0.00 0.00 99 1015.1
20260831092407 51 240 0.0 0.0 0.00 0.00 0.00 99 1015.1
20260831091902 51 241 0.0 0.0 0.00 0.00 0.00 99 1015.4
20260831091357 51 241 0.0 0.0 0.00 0.00 0.00 99 1015.4
20260831090852 51 240 0.0 0.0 0.00 0.00 0.00 99 1015.4
20260831090348 51 240 0.0 0.0 0.00 0.00 0.00 99 1015.4
20260831085844 51 241 0.0 0.0 0.00 0.00 0.00 99 1015.8
20260831085338 51 240 0.0 0.0 0.00 0.00 0.00 99 1015.4
20260831084833 51 240 0.0 0.0 0.00 0.00 0.00 98 1015.4
20260831084329 51 241 0.0 0.0 0.00 0.00 0.00 99 1015.4
20260831083825 51 240 0.0 0.0 0.00 0.00 0.00 98 1015.8
20260831083321 51 240 0.0 0.0 0.00 0.00 0.00 98 1015.4
20260831082819 51 240 0.0 0.0 0.00 0.00 0.00 98 1015.8
20260831082314 51 240 0.0 0.0 0.00 0.00 0.00 98 1015.4
20260831081810 51 240 0.0 0.0 0.00 0.00 0.00 98 1015.8
20260831081305 51 240 0.0 0.0 0.00 0.00 0.00 98 1015.8
20260831080801 51 240 0.0 0.0 0.00 0.00 0.00 98 1015.8
20260831080255 51 240 0.0 0.0 0.00 0.00 0.00 97 1015.8
20260831075751 51 240 0.0 0.0 0.00 0.00 0.00 97 1015.8
20260831075246 51 240 0.0 0.0 0.00 0.00 0.00 97 1015.8
20260831074746 51 240 0.0 0.0 0.00 0.00 0.00 97 1015.8
20260831074240 52 240 0.0 0.0 0.00 0.00 0.00 96 1016.2
20260831073736 52 240 0.0 0.0 0.00 0.00 0.00 97 1015.8
20260831073235 52 240 0.0 0.0 0.00 0.00 0.00 96 1015.8
20260831072730 52 240 0.0 0.0 0.00 0.00 0.00 96 1015.8
20260831072227 52 240 0.0 0.0 0.00 0.00 0.00 96 1016.2
20260831071726 52 240 0.0 0.0 0.00 0.00 0.00 96 1016.2
20260831071221 52 240 0.0 0.0 0.00 0.00 0.00 95 1016.2
20260831070715 52 240 0.0 0.0 0.00 0.00 0.00 95 1016.2
20260831070209 53 240 0.0 0.0 0.00 0.00 0.00 95 1016.6
20260831065708 52 240 0.0 0.0 0.00 0.00 0.00 94 1016.6
20260831065207 53 240 0.0 0.0 0.00 0.00 0.00 94 1016.6
20260831064702 53 240 0.0 0.0 0.00 0.00 0.00 94 1016.6
20260831064157 53 240 0.0 0.0 0.00 0.00 0.00 93 1016.6
20260831063653 53 240 0.0 0.0 0.00 0.00 0.00 92 1016.6
20260831063148 53 240 0.0 0.0 0.00 0.00 0.00 92 1016.9
20260831062643 54 240 0.0 0.0 0.00 0.00 0.00 92 1016.6
20260831062142 54 240 0.0 0.0 0.00 0.00 0.00 91 1016.9
20260831061640 54 240 0.0 0.0 0.00 0.00 0.00 90 1016.9
20260831061136 54 240 0.0 0.0 0.00 0.00 0.00 91 1016.9
20260831060632 55 240 0.0 0.0 0.00 0.00 0.00 90 1016.9
20260831060132 55 240 0.0 0.0 0.00 0.00 0.00 88 1017.2
20260831055631 55 240 0.0 0.0 0.00 0.00 0.00 88 1016.9
20260831055127 56 239 0.0 0.0 0.00 0.00 0.00 88 1016.9
20260831054626 56 240 0.0 0.0 0.00 0.00 0.00 86 1017.2
20260831054121 57 231 0.0 0.0 0.00 0.00 0.00 85 1016.9
20260831053620 58 243 0.0 0.0 0.00 0.00 0.00 84 1017.2
20260831053114 59 162 1.0 2.0 0.00 0.00 0.00 82 1016.9
20260831052613 59 290 2.0 2.0 0.00 0.00 0.00 82 1017.2
20260831052107 58 271 0.0 0.0 0.00 0.00 0.00 83 1017.2
20260831051605 56 255 0.0 0.0 0.00 0.00 0.00 87 1017.2
20260831051104 56 251 0.0 0.0 0.00 0.00 0.00 87 1017.6
20260831050604 57 226 0.0 1.0 0.00 0.00 0.00 85 1017.6
20260831045557 57 266 0.0 0.0 0.00 0.00 0.00 84 1017.6
20260831045052 56 267 1.0 1.0 0.00 0.00 0.00 85 1017.6
20260831044548 56 251 0.0 0.0 0.00 0.00 0.00 86 1017.6
20260831044042 57 251 0.0 0.0 0.00 0.00 0.00 85 1017.6
20260831043537 57 251 0.0 0.0 0.00 0.00 0.00 85 1017.6
20260831043033 57 251 0.0 0.0 0.00 0.00 0.00 84 1017.9
20260831042532 58 251 0.0 0.0 0.00 0.00 0.00 83 1017.6
20260831042032 58 251 0.0 0.0 0.00 0.00 0.00 81 1017.6
20260831041528 58 250 0.0 0.0 0.00 0.00 0.00 82 1017.9
20260831041021 59 250 0.0 0.0 0.00 0.00 0.00 82 1017.9
20260831040516 59 252 0.0 0.0 0.00 0.00 0.00 79 1017.9
20260831040015 60 238 0.0 0.0 0.00 0.00 0.00 78 1017.9
20260831035508 61 250 0.0 0.0 0.00 0.00 0.00 78 1017.6
20260831035003 61 271 0.0 0.0 0.00 0.00 0.00 76 1017.6
20260831034457 60 268 0.0 1.0 0.00 0.00 0.00 77 1017.6
20260831033953 60 269 0.0 0.0 0.00 0.00 0.00 78 1017.6
20260831033448 61 257 0.0 0.0 0.00 0.00 0.00 76 1017.2
20260831032943 61 264 0.0 0.0 0.00 0.00 0.00 76 1017.6
20260831032438 62 247 0.0 0.0 0.00 0.00 0.00 77 1017.6
20260831031933 62 247 0.0 0.0 0.00 0.00 0.00 74 1017.6
20260831031432 62 233 0.0 0.0 0.00 0.00 0.00 75 1017.6
20260831030932 63 210 0.0 1.0 0.00 0.00 0.00 73 1017.2
20260831030431 63 221 0.0 0.0 0.00 0.00 0.00 72 1017.2
20260831025930 63 234 0.0 0.0 0.00 0.00 0.00 73 1017.2
20260831025429 64 172 1.0 1.0 0.00 0.00 0.00 71 1017.6
20260831024925 64 209 1.0 1.0 0.00 0.00 0.00 71 1017.6
20260831024424 64 220 0.0 1.0 0.00 0.00 0.00 70 1017.2
20260831023919 65 144 2.0 2.0 0.00 0.00 0.00 69 1017.6
20260831023417 65 210 1.0 1.0 0.00 0.00 0.00 69 1017.2
20260831022913 65 212 3.0 3.0 0.00 0.00 0.00 69 1017.6
20260831022411 66 214 0.0 1.0 0.00 0.00 0.00 69 1017.6
20260831021906 66 194 1.0 1.0 0.00 0.00 0.00 67 1017.2
20260831021406 66 207 1.0 1.0 0.00 0.00 0.00 67 1017.6
20260831020902 66 215 1.0 1.0 0.00 0.00 0.00 66 1017.6
20260831020401 66 228 1.0 1.0 0.00 0.00 0.00 65 1017.6
20260831015856 67 277 0.0 0.0 0.00 0.00 0.00 65 1017.6
20260831015352 67 214 1.0 2.0 0.00 0.00 0.00 64 1017.6
20260831014847 67 236 0.0 0.0 0.00 0.00 0.00 62 1017.6
20260831014341 68 205 1.0 1.0 0.00 0.00 0.00 61 1017.6
20260831013838 68 259 0.0 0.0 0.00 0.00 0.00 61 1017.6
20260831013332 68 254 0.0 0.0 0.00 0.00 0.00 61 1017.6
20260831012826 68 227 0.0 1.0 0.00 0.00 0.00 59 1017.6
20260831012322 68 233 2.0 2.0 0.00 0.00 0.00 59 1017.2
20260831011822 69 94 2.0 2.0 0.00 0.00 0.00 59 1017.6
20260831011317 69 273 0.0 1.0 0.00 0.00 0.00 60 1017.6
20260831010813 70 207 1.0 1.0 0.00 0.00 0.00 60 1017.6
20260831010312 70 262 1.0 1.0 0.00 0.00 0.00 58 1017.6
20260831005808 70 244 0.0 0.0 0.00 0.00 0.00 58 1017.6
20260831005306 69 265 1.0 1.0 0.00 0.00 0.00 58 1017.6
20260831004758 69 228 0.0 1.0 0.00 0.00 0.00 60 1017.6
20260831004254 69 136 1.0 2.0 0.00 0.00 0.00 59 1017.6
20260831003749 69 208 1.0 1.0 0.00 0.00 0.00 59 1017.6
20260831003245 71 293 3.0 3.0 0.00 0.00 0.00 56 1017.6
20260831002744 70 218 0.0 0.0 0.00 0.00 0.00 58 1017.6
20260831002239 70 315 0.0 0.0 0.00 0.00 0.00 57 1017.9
20260831001735 70 254 0.0 0.0 0.00 0.00 0.00 56 1017.6
20260831001230 71 265 0.0 0.0 0.00 0.00 0.00 55 1017.9
20260831000727 70 346 1.0 1.0 0.00 0.00 0.00 57 1017.9
20260831000222 69 225 1.0 1.0 0.00 0.00 0.00 58 1017.9
20260830235721 69 291 0.0 1.0 0.00 0.00 0.00 57 1017.9
20260830235216 69 59 1.0 1.0 0.00 0.00 0.00 58 1017.9
20260830234710 70 243 0.0 0.0 0.00 0.00 0.00 57 1018.2
20260830234207 70 274 0.0 0.0 0.00 0.00 0.00 58 1017.9
20260830233702 69 130 2.0 2.0 0.00 0.00 0.00 60 1018.2
20260830233157 69 100 0.0 1.0 0.00 0.00 0.00 57 1018.2
20260830232653 70 23 2.0 2.0 0.00 0.00 0.00 57 1018.2
20260830232149 70 221 1.0 1.0 0.00 0.00 0.00 56 1018.2
20260830231645 70 250 0.0 0.0 0.00 0.00 0.00 55 1018.2
20260830231144 71 234 0.0 0.0 0.00 0.00 0.00 55 1018.2
20260830230639 71 245 0.0 0.0 0.00 0.00 0.00 55 1018.2
20260830230139 69 235 0.0 0.0 0.00 0.00 0.00 57 1018.6
20260830225634 70 206 1.0 1.0 0.00 0.00 0.00 58 1018.6
20260830225129 70 226 0.0 1.0 0.00 0.00 0.00 56 1018.6
20260830224627 70 254 0.0 0.0 0.00 0.00 0.00 58 1018.6
20260830224124 69 273 0.0 1.0 0.00 0.00 0.00 56 1018.6
20260830223621 70 277 1.0 1.0 0.00 0.00 0.00 55 1018.6
20260830223120 69 235 0.0 0.0 0.00 0.00 0.00 57 1018.6
20260830222615 70 294 1.0 1.0 0.00 0.00 0.00 57 1018.6
20260830222111 69 272 0.0 0.0 0.00 0.00 0.00 58 1018.9
20260830221606 69 50 1.0 1.0 0.00 0.00 0.00 57 1018.9
20260830221102 69 218 1.0 2.0 0.00 0.00 0.00 59 1018.9
20260830220557 69 239 0.0 1.0 0.00 0.00 0.00 59 1018.6